Timeline UpdatesTrip UpdatesNews PostsPvt PostsTravel TipsAdmin PostsConv PostsFollowed PostsChat RequestsBlog PostsPNR Posts

Disclaimer
Search
 
 
Wed Apr 16, 2014 18:34:19 ISTHomeTrainsΣChainsAtlasPNRForumGalleryNewsFAQTripsMembersLoginFeedback
No Recent News for this Train
Other Trains in the News **new
Latest...
⇐ Return Journey: Train# 59208

59207/Bhavnagar Okha Passenger

Feb 22 2014 (11:41PM)
Change Departure Station:
Change Arrival Station:
Post a Train Travel TipPost a Train Travel Tip **new
Post a Comment/Question/Picture/VideoPost a Comment/Question/Picture/Video
Pantry/Catering
✕ NO Pantry Car
✕ NO Catering
RSA - Rake Sharing
59267/59268 Bhavnagar-Palitana Passenger; RSA 09201/09202; BVC-SUNR(Triweekly) PASS.
Rake/Coach Composition
ENG.SLR.GEN.GEN.S1.S2.GEN.GEN.SLR(RMS).; By Darshan Chauhan Entry# 684153
Loco
LOCO RTM WDM 3A.
News    PNR    Forum    Time-Table    Availability    Fare Chart    Map    Arr/Dep History    Trips    Gallery    ΣChains    X/O    Timeline    
Travel Time: 7h 38m    29 halts    Distance: 256 km    Avg Speed: 33 km/hr
Type: Passenger
Zone: WR/Western
Departs @ 21:25 (Avg 4m late)
Platform# 1
SMTWTFS
Bhavnagar Terminus/BVC 
Arrives @ 05:03 +1 night (Avg 2m late)
Platform# ???
SMTWTFS
Sindhawadar/SDD 

29 halts. 36 intermediate Stations between Bhavnagar Terminus and Sindhawadar

Show ALL intermediate Stations  Show Old Time-Table

#CodeStation NameX/OArrivesAvgDepartsAvgHaltPFDay#KmSpeedElevZoneAddress
1BVC»Bhavnagar Terminus (2)»  -21:25+4110.03311mWRBhavnagar, Gujarat
2BVPBhavnagar Para  21:30+721:31+91m--12.74313mWRBhavnagar, Gujarat
3VTJVartej  21:41+1221:42+111m--19.94524mWRBhavnagar, Gujarat
4KDMRKodiyar Mandir  21:49+1321:50+131m--115.24592mWRSH 21, Gujarat
5SOJNSihor Gujarat  21:57+1421:58+141m--120.45042mWRShihor, Gujarat
6SGDSongadh (1)  22:07+1422:08+141m1127.95240mWRBhavnagar, Gujarat
7BJUDBajudX  22:15+1022:16+111m--134.02937mWRState Highway 31, Gujarat
8SOASanosra  22:25+1122:26+141m1138.36636mWRState Highway 25, Gujarat
9DLJDhola Junction  22:36+1422:37+161m1149.36137mWRDhola, Gujarat
10UJUjalvav  22:47+1722:48+181m--159.55064mWRState Highway 31, Gujarat
11ALMRAlampur  22:56+1822:57+191m--166.26459mWRState Highway 31, Gujarat
12NGANingala Junction  23:04+1923:05+191m--173.75657mWRState Highway 117, Gujarat
13LTDLathidad  23:13+1923:14+211m--181.24768mWRTajpar Rd, Gujarat
14BTDBotad Junction (5)  23:28+2223:30+252m1192.26896mWRBotad, Gujarat
15KDIKundli  23:40+2823:41+281m--1103.76586mWRState Highway 38, Gujarat
16RURRanpur  23:51+2723:52+271m--1114.46561mWRRanpur, Gujarat
17CDAChuda  00:07+2400:08+241m--2130.76063mWRState Highway 38, Gujarat
18LMLimbdi (1)  00:18+2400:19+231m12140.83651mWRLimbdi, Gujarat
19WCWadhwan City  00:53+600:54+61m--2161.13667mWRSurendranagar, Gujarat
20JVNJorawarnagar Junction (1)  01:00+601:01+61m12164.62869mWRSurendra Nagar, Gujarat
21SRGTSurendranagar Gate (1)  01:07+701:08+71m12167.4871mWRSurendranagar, Gujarat
22SUNRSurendranagar Junction (4)X  01:25+601:40+915m12169.63672mWRSurendra Nagar, Gujarat
23DXRDigsar  02:03+602:04+81m--2183.348100mWRState Highway 17, Gujarat
24MOLMuli Road  02:14+802:15+111m12191.350108mWRSurendranagar, Gujarat
25RARampardaXO  02:26+1002:27+171m--2200.520141mWRSurendranagar, Gujarat
26VDVagdiya  02:46+802:47+241m--2206.952149mWRState Highway 113, Gujarat
27THANThan Junction (3)  02:59+2303:01+242m12217.357138mWRThangadh, Gujarat
28DLDaladi  03:16+2703:17+281m--2231.441115mWRDaladi, Gujarat
29WKRWankaner Junction (4)X  03:35+3004:43+168m--2243.94087mWRWankaner, Gujarat
30AXAAmarsar  04:54+104:55+21m--2251.239113mWRRajkot, Gujarat
31SDD•Sindhawadar•  05:03+205:04+31m--2256.434105mWRSindhavadar, Gujarat
32KNKTKanakotX  05:16+205:18+102m--2263.147133mWRState Highway 113, Gujarat
33KHCKhoranaX  05:33+605:34+131m--2274.931131mWRState Highway 113, Gujarat
34RJTRajkot Junction (5)XO  05:55+1307:05+470m32285.654128mWRRajkot, Gujarat
35KHDIKhanderi  07:17+707:18+101m--2296.460111mWRRajkot, Gujarat
36PDHPadadhari  07:32+1007:33+121m--2310.44671mWRPaddhari, Gujarat
37CXChanol  07:42+1207:43+121m--2317.34889mWRState Highway 25, Gujarat
38HMHadmatiya Junction  07:52+1207:53+111m--2324.46770mWRHadmatiya Junction Railway Station, Gujarat
39JALDJaliya DevaniX  08:00+1108:01+121m--2332.34250mWRRanuja Village Rd, Gujarat
40WTJJam Wanthali  08:12+1308:13+131m--2339.95952mWRRanuja Village Rd, Gujarat
41ALBAlia Bada  08:25+1308:26+131m--2351.64227mWRJamnagar, Gujarat
42HAPAHapa (3)X  08:40+1208:45+165m--2361.54316mWRJamnagar, Gujarat
43JAMJamnagar (2)X  08:57+1609:00+203m--2370.25914mWRJamnagar, Gujarat
44LKBLLakhabawalX  09:12+2109:13+221m--2382.02721mWRJamnagar, Gujarat
45PPLIPipli  09:34+1209:35+131m--2391.53930mWRJamnagar, Gujarat
46KNLSKanalus JunctionX  09:43+1409:44+151m--2396.63436mWRJamnagar, Gujarat
47MDPRModpur  10:03+1110:04+111m--2407.45647mWRKhambhalia-Lalpur, Gujarat
48SYQSinhan  10:14+1410:15+141m--2416.75250mWRSH 6, Gujarat
49KMBLKhambhalia  10:24+1310:26+132m--2424.55549mWRKhambhalia, Gujarat
50VQDViramdad  10:34+1310:35+131m--2431.96549mWRKhambhalia-Dwarka (SH 6), Gujarat
51BHTLBhatel  10:45+1310:46+131m--2442.64735mWRJamnagar, Gujarat
52BPKABhopalka  11:04+1311:05+131m--2456.85446mWRJamnagar, Gujarat
53BHTABhatiya  11:16+1411:18+142m--2466.86334mWRNational Highway 8E, Gujarat
54KRGAKuranga  11:29+1211:30+121m--2478.46312mWRJamnagar, Gujarat
55OKDOkha Madhi  11:38+1211:39+121m--2486.71085mWRNH 8E, Gujarat
56GRJAGorinjaX  11:49+1211:50+121m--2504.7235mWRKhambhalia-Dwarka (SH 6), Gujarat
57DWKDwarka (2)  12:00+1212:01+151m--2508.52514mWRDwarka, Gujarat
58VVAVarvala  12:13+512:14+51m--2513.63114mWRJamnagar, Gujarat
59BMRNBhimranaX  12:36+312:38+142m--2524.8136mWRBhimrana, Gujarat
60MTHPMithapur  12:52+312:53+31m--2527.7213mWRJamnagar, Gujarat
61OKHAOkha (3)  13:20-1---2537.2-5mWROkha, Gujarat
Scroll to Top
Scroll to Bottom